Change the Weather History Date:

Friday, July 4, 2014

  Actual Average Record
Temperature  
Mean Temperature 68 °F 62 °F  
Max Temperature 85 °F 78 °F 95 °F (2001)
Min Temperature 51 °F 47 °F 32 °F (1962)
Degree Days  
Heating Degree Days 0 4  
Month to date heating degree days 0 17  
Since 1 June heating degree days 253 233  
Since 1 July heating degree days 0 17  
Cooling Degree Days 3 1  
Month to date cooling degree days 11 4  
Year to date cooling degree days 11 20  
Since 1 June cooling degree days 11 17  
Growing Degree Days 18 (Base 50)    
Moisture  
Dew Point 48 °F    
Average Humidity 60    
Maximum Humidity 96    
Minimum Humidity 23    
Precipitation  
Precipitation 0.00 in 0.06 in 0.49 in (1993)
Month to date precipitation 0.10 0.26  
Year to date precipitation 12.59 9.43  
Snow  
Snow 0.00 in - - ()
Month to date snowfall 0.0  
Year to date snowfall 38.2  
Since 1 July snowfall 0.0  
Snow Depth 0.00 in    
Sea Level Pressure  
Sea Level Pressure 29.89 in    
Wind  
Wind Speed 5 mph (South)    
Max Wind Speed 15 mph    
Max Gust Speed 19 mph    
Visibility 10 miles    
Events      
T = Trace of Precipitation, MM = Missing Value Source: NWS Daily Summary

Daily Weather History Graph

Daily Weather History Graph

Search for Another Location

Airport or City:

Trip Planner

Search our weather history database for the weather conditions in past years. The results will help you decide how hot, cold, wet, or windy it might be!

Date:

Astronomy

Jul. 04, 2014 Rise Set
Actual Time 5:42 AM MDT 9:40 PM MDT
Civil Twilight 5:01 AM MDT 10:21 PM MDT
Nautical Twilight 4:04 AM MDT 11:18 PM MDT
Astronomical Twilight 2:30 AM MDT 12:50 AM MDT
Moon 1:17 PM MDT (7/4) 12:32 AM MDT (7/4)
Length of Visible Light 17h 20m
Length of Day
15h 58m
Waxing Crescent, 43% of the Moon is Illuminated
Jul 4
Waxing Crescent
Jul 5
First Quarter
Jul 12
Full
Jul 18
Last Quarter
Jul 26
New

Hourly Weather History & Observations

Time (MDT) Temp. Dew Point Humidity Pressure Visibility Wind Dir Wind Speed Gust Speed Precip Events Conditions
12:55 AM 59.0 °F 48.9 °F 69% 29.86 in 10.0 mi Calm Calm - N/A   Clear
1:55 AM 55.0 °F 48.9 °F 80% 29.88 in 10.0 mi NE 3.5 mph - N/A   Clear
2:55 AM 55.9 °F 51.1 °F 84% 29.89 in 10.0 mi NE 5.8 mph - N/A   Clear
3:55 AM 54.0 °F 51.1 °F 90% 29.90 in 10.0 mi Calm Calm - N/A   Clear
4:55 AM 53.1 °F 50.0 °F 89% 29.91 in 10.0 mi West 4.6 mph - N/A   Clear
5:55 AM 52.0 °F 50.0 °F 93% 29.93 in 10.0 mi North - - N/A   Clear
6:55 AM 55.9 °F 52.0 °F 87% 29.94 in 10.0 mi Calm Calm - N/A   Clear
7:55 AM 64.0 °F 54.0 °F 70% 29.93 in 10.0 mi Calm Calm - N/A   Clear
8:55 AM 66.9 °F 53.1 °F 61% 29.93 in 10.0 mi Calm Calm - N/A   Clear
9:55 AM 70.0 °F 53.1 °F 55% 29.93 in 10.0 mi Calm Calm - N/A   Clear
10:55 AM 73.9 °F 50.0 °F 43% 29.92 in 10.0 mi SSE 5.8 mph - N/A   Clear
11:55 AM 78.1 °F 46.9 °F 33% 29.91 in 10.0 mi South 9.2 mph - N/A   Clear
12:55 PM 81.0 °F 42.1 °F 25% 29.90 in 10.0 mi SSE 10.4 mph - N/A   Clear
1:55 PM 81.0 °F 42.1 °F 25% 29.90 in 10.0 mi SE 10.4 mph - N/A   Clear
2:55 PM 82.0 °F 43.0 °F 25% 29.88 in 10.0 mi SE 8.1 mph - N/A   Clear
3:55 PM 84.0 °F 42.1 °F 23% 29.87 in 10.0 mi South 11.5 mph - N/A   Clear
4:55 PM 82.0 °F 45.0 °F 27% 29.87 in 10.0 mi South 9.2 mph - N/A   Clear
5:55 PM 82.9 °F 44.1 °F 25% 29.86 in 10.0 mi SSW 6.9 mph - N/A   Clear
6:55 PM 79.0 °F 46.9 °F 32% 29.85 in 10.0 mi Calm Calm - N/A   Clear
7:55 PM 77.0 °F 54.0 °F 45% 29.84 in 10.0 mi SW 4.6 mph - N/A   Clear
8:55 PM 75.9 °F 37.9 °F 25% 29.84 in 10.0 mi West 5.8 mph - N/A   Clear
9:55 PM 69.1 °F 46.9 °F 45% 29.86 in 10.0 mi SSW 5.8 mph - N/A   Clear
10:55 PM 64.0 °F 48.0 °F 56% 29.86 in 10.0 mi SW 6.9 mph - N/A   Clear
11:55 PM 63.0 °F 45.0 °F 52% 29.86 in 10.0 mi Calm Calm - N/A   Clear